Location: Dos Palmas
(32.4468°N, 116.8732°W)
Time: 13:48:18
(UTC+00:00)

ACS3 Solar Sail - Visible Passes

Search period start: 20 July 2024 00:00
Search period end: 30 July 2024 00:00
Orbit: 993 x 1023 km, 97.4° (Epoch: 19 July)

Date Brightness Start Highest point End Pass type
(mag) Time Alt. Az. Time Alt. Az. Time Alt. Az.
20 Jul 5.7 04:08:48 20° ESE 04:12:03 31° ENE 04:17:25 10° N visible
20 Jul 6.1 05:54:09 28° SW 05:56:00 33° W 06:01:32 10° NNW visible
21 Jul 4.9 04:43:37 35° SE 04:46:14 63° ENE 04:52:23 10° N visible
21 Jul 6.9 06:28:59 14° WSW 06:30:43 15° W 06:34:13 10° NW visible
22 Jul 6.5 03:33:34 10° E 03:37:10 16° ENE 03:40:47 10° NNE visible
22 Jul 5.0 05:18:28 41° SSW 05:20:36 65° W 05:26:48 10° NNW visible
23 Jul 5.7 04:07:56 20° ESE 04:11:10 32° ENE 04:16:36 10° N visible
23 Jul 6.1 05:53:18 27° SW 05:55:08 32° W 06:00:37 10° NW visible
24 Jul 4.8 04:42:46 36° SE 04:45:21 66° ENE 04:51:32 10° N visible
24 Jul 7.0 06:28:07 13° WSW 06:29:52 15° W 06:33:12 10° WNW visible
25 Jul 6.4 03:32:31 10° ESE 03:36:16 17° ENE 03:40:02 10° NNE visible
25 Jul 5.1 05:17:37 41° SSW 05:19:44 63° W 05:25:56 10° NNW visible
26 Jul 5.6 04:07:05 21° ESE 04:10:16 34° ENE 04:15:46 10° N visible
26 Jul 6.2 05:52:26 26° SW 05:54:17 30° W 05:59:42 10° NW visible
27 Jul 4.8 04:41:55 37° SE 04:44:28 68° ENE 04:50:41 10° N visible
27 Jul 7.0 06:27:16 13° WSW 06:29:00 14° W 06:32:10 10° WNW visible
28 Jul 6.4 03:31:30 10° ESE 03:35:22 17° ENE 03:39:16 10° NNE visible
28 Jul 5.1 05:16:46 41° SSW 05:18:51 61° W 05:25:03 10° NNW visible
29 Jul 5.6 04:06:15 22° ESE 04:09:23 35° ENE 04:14:57 10° N visible
29 Jul 6.2 05:51:36 25° WSW 05:53:24 29° W 05:58:47 10° NW visible
